sat.trackr.live / text

‹ back to catalog

STARLINK-34842

NORAD 65235 · 2025-179A

PAYLOAD ACTIVE UNKNOWN

§ Identity

Operator
Country
US
Launch date
2025-08-18
Launch site
AFWTR
Launch vehicle
Mass (kg)
RCS (m²)

Purposes: comms

External: N2YO · Heavens-Above · Gunter

§ Orbital elements

Epoch: 2026-05-25T02:57:15.274080Z

Period
95.64 min
Inclination
97.4485°
Eccentricity
0.0002129
Mean motion
15.05655574 rev/d
Perigee alt
548.0 km
Apogee alt
551.0 km
Semi-major
6,927.6 km
B*
1.8550e-4
RAAN
188.0042°
Arg perigee
129.0556°
Mean anomaly
231.0861°
Rev number
4,338

§ Raw data

STARLINK-348421 65235U 25179A   26145.12309345  .00002619  00000+0  18550-3 0  99992 65235  97.4485 188.0042 0002129 129.0556 231.0861 15.05655574 43387

JSON: /api/v1/satellites/65235 · /tle

For live sub-satellite position, see the globe view (requires WebGL).

§ Visibility from observer

Set your observer location to see the next 7 days of passes ≥ 10°. The values pass through the URL so the page stays shareable.

No JS? Fill the form by hand. The geolocation button needs JavaScript.